TimeEEST,TemperatureF,Dew PointF,Humidity,Sea Level PressureIn,VisibilityMPH,Wind Direction,Wind SpeedMPH,Gust SpeedMPH,PrecipitationIn,Events,Conditions,WindDirDegrees,DateUTC
12:20 AM,66.2,55.4,68,30.24,-9999.0,ENE,6.9,-,N/A,,Clear,60,2012-10-18 21:20:00
12:50 AM,66.2,55.4,68,30.21,-9999.0,NE,10.4,-,N/A,,Clear,50,2012-10-18 21:50:00
1:20 AM,68.0,57.2,68,30.21,-9999.0,ENE,8.1,-,N/A,,Clear,60,2012-10-18 22:20:00
1:50 AM,66.2,57.2,73,30.21,-9999.0,NE,8.1,20.7,N/A,,Clear,50,2012-10-18 22:50:00
2:20 AM,66.2,55.4,68,30.21,-9999.0,NE,9.2,-,N/A,,Clear,50,2012-10-18 23:20:00
2:50 AM,66.2,57.2,73,30.21,-9999.0,NE,9.2,-,N/A,,Clear,50,2012-10-18 23:50:00
3:20 AM,66.2,55.4,68,30.21,-9999.0,NE,8.1,-,N/A,,Clear,50,2012-10-19 00:20:00
3:50 AM,66.2,55.4,68,30.21,-9999.0,NE,6.9,-,N/A,,Clear,50,2012-10-19 00:50:00
4:20 AM,64.4,55.4,73,30.21,-9999.0,NE,9.2,-,N/A,,Clear,40,2012-10-19 01:20:00
4:50 AM,64.4,55.4,73,30.21,-9999.0,NNE,11.5,-,N/A,,Clear,30,2012-10-19 01:50:00
5:20 AM,64.4,55.4,73,30.21,-9999.0,NE,9.2,-,N/A,,Clear,40,2012-10-19 02:20:00
5:50 AM,66.2,53.6,64,30.21,-9999.0,NE,10.4,-,N/A,,Clear,40,2012-10-19 02:50:00
6:50 AM,64.4,53.6,68,30.21,-9999.0,NE,9.2,-,N/A,,Clear,50,2012-10-19 03:50:00
7:20 AM,64.4,53.6,68,30.21,-9999.0,NE,8.1,-,N/A,,Clear,50,2012-10-19 04:20:00
7:50 AM,66.2,53.6,64,30.21,6.2,NE,9.2,-,N/A,,Partly Cloudy,50,2012-10-19 04:50:00
8:20 AM,66.2,53.6,64,30.21,6.2,ENE,10.4,-,N/A,,Partly Cloudy,60,2012-10-19 05:20:00
8:50 AM,68.0,53.6,60,30.21,-9999.0,Variable,10.4,-,N/A,,Clear,0,2012-10-19 05:50:00
9:00 AM,69,53,46,30.24,6,NE,10.4,,,,,50,2012-10-19 06:00:00
9:20 AM,68.0,51.8,56,30.24,-9999.0,NE,13.8,-,N/A,,Clear,50,2012-10-19 06:20:00
9:50 AM,68.0,51.8,56,30.24,6.2,ENE,16.1,-,N/A,,Partly Cloudy,70,2012-10-19 06:50:00
10:20 AM,69.8,51.8,53,30.24,6.2,NE,17.3,-,N/A,,Partly Cloudy,40,2012-10-19 07:20:00
10:50 AM,69.8,51.8,53,30.24,6.2,NE,11.5,-,N/A,,Partly Cloudy,50,2012-10-19 07:50:00
11:20 AM,71.6,50.0,46,30.21,-9999.0,NE,11.5,-,N/A,,Clear,50,2012-10-19 08:20:00
11:50 AM,71.6,50.0,46,30.21,-9999.0,ENE,13.8,-,N/A,,Clear,70,2012-10-19 08:50:00
12:20 PM,71.6,50.0,46,30.21,-9999.0,NE,15.0,-,N/A,,Clear,40,2012-10-19 09:20:00
12:50 PM,71.6,50.0,46,30.21,-9999.0,NE,13.8,-,N/A,,Clear,40,2012-10-19 09:50:00
1:20 PM,73.4,50.0,44,30.18,-9999.0,NE,12.7,-,N/A,,Clear,40,2012-10-19 10:20:00
1:50 PM,75.2,48.2,38,30.18,-9999.0,NNE,10.4,-,N/A,,Clear,30,2012-10-19 10:50:00
2:20 PM,73.4,46.4,38,30.18,-9999.0,NE,15.0,-,N/A,,Clear,40,2012-10-19 11:20:00
2:50 PM,73.4,46.4,38,30.18,-9999.0,North,16.1,-,N/A,,Clear,10,2012-10-19 11:50:00
3:00 PM,73,47,28,30.19,6,North,16.1,,,,,10,2012-10-19 12:00:00
3:20 PM,71.6,46.4,41,30.18,-9999.0,NNE,15.0,-,N/A,,Clear,30,2012-10-19 12:20:00
3:50 PM,73.4,48.2,41,30.18,-9999.0,Variable,12.7,-,N/A,,Clear,0,2012-10-19 12:50:00
4:20 PM,71.6,50.0,46,30.15,-9999.0,NNE,13.8,-,N/A,,Clear,30,2012-10-19 13:20:00
4:50 PM,71.6,50.0,46,30.15,-9999.0,NNE,11.5,-,N/A,,Clear,30,2012-10-19 13:50:00
5:20 PM,68.0,50.0,52,30.15,-9999.0,NNE,13.8,-,N/A,,Clear,20,2012-10-19 14:20:00
5:50 PM,66.2,50.0,56,30.15,-9999.0,NNE,13.8,-,N/A,,Clear,30,2012-10-19 14:50:00
6:20 PM,66.2,50.0,56,30.15,-9999.0,NE,12.7,-,N/A,,Clear,40,2012-10-19 15:20:00
6:50 PM,66.2,51.8,60,30.15,-9999.0,NE,12.7,-,N/A,,Clear,40,2012-10-19 15:50:00
7:20 PM,66.2,51.8,60,30.15,-9999.0,NE,11.5,-,N/A,,Clear,40,2012-10-19 16:20:00
7:50 PM,66.2,51.8,60,30.15,-9999.0,NE,10.4,-,N/A,,Clear,40,2012-10-19 16:50:00
8:20 PM,64.4,51.8,64,30.15,-9999.0,NNE,9.2,-,N/A,,Clear,30,2012-10-19 17:20:00
8:50 PM,68.0,51.8,56,30.15,-9999.0,Variable,8.1,-,N/A,,Clear,0,2012-10-19 17:50:00
9:00 PM,67,51,47,30.17,6,ENE,8.1,,,,,70,2012-10-19 18:00:00
9:20 PM,66.2,51.8,60,30.15,-9999.0,NE,6.9,-,N/A,,Clear,50,2012-10-19 18:20:00
9:50 PM,64.4,51.8,64,30.15,-9999.0,Variable,6.9,-,N/A,,Clear,0,2012-10-19 18:50:00
10:20 PM,64.4,51.8,64,30.15,-9999.0,NE,8.1,-,N/A,,Clear,50,2012-10-19 19:20:00
10:50 PM,64.4,51.8,64,30.15,-9999.0,ENE,5.8,-,N/A,,Clear,60,2012-10-19 19:50:00
11:20 PM,62.6,50.0,63,30.15,-9999.0,NE,8.1,-,N/A,,Clear,50,2012-10-19 20:20:00
11:50 PM,62.6,50.0,63,30.15,-9999.0,NE,8.1,-,N/A,,Clear,50,2012-10-19 20:50:00